This is the latest recevied weather packets stored in our database for station/object DG3RAP-11. If no packets are shown the sender has not sent any weather packets the latest 1 day(s).
| Time | Temp. | Humidity | Pressure | Rain* | Wind** | Luminosity | Snow |
|---|---|---|---|---|---|---|---|
| 1778016963 | 12.22° C | 96% | 1008.1 hPa | 0 mm | 0.89 m/s, 283° | - | - |
| 1778016423 | 12.22° C | 96% | 1008.3 hPa | 0 mm | 0.89 m/s, 271° | - | - |
| 1778015883 | 12.22° C | 96% | 1008.1 hPa | 0 mm | 0.89 m/s, 274° | - | - |
| 1778015343 | 12.78° C | 95% | 1007.5 hPa | 0 mm | 1.34 m/s, 272° | - | - |
| 1778014803 | 12.78° C | 94% | 1007.6 hPa | 0 mm | 1.79 m/s, 279° | - | - |
| 1778014443 | 12.78° C | 94% | 1007.6 hPa | 0 mm | 1.79 m/s, 283° | - | - |
| 1778013903 | 12.78° C | 93% | 1007.5 hPa | 0 mm | 1.34 m/s, 285° | - | - |
| 1778013363 | 12.78° C | 92% | 1007.4 hPa | 0 mm | 2.24 m/s, 270° | - | - |
| 1778012823 | 12.78° C | 92% | 1007.4 hPa | 0 mm | 1.79 m/s, 292° | - | - |
| 1778012283 | 13.33° C | 92% | 1007.3 hPa | 0 mm | 2.24 m/s, 289° | - | - |
| 1778011743 | 13.33° C | 92% | 1007.3 hPa | 0 mm | 2.24 m/s, 280° | - | - |
| 1778011203 | 13.33° C | 92% | 1006.9 hPa | 0 mm | 1.79 m/s, 291° | - | - |
| 1778010843 | 13.33° C | 91% | 1006.8 hPa | 0 mm | 1.79 m/s, 277° | - | - |
| 1778010303 | 13.33° C | 92% | 1007 hPa | 0 mm | 1.79 m/s, 279° | - | - |
| 1778009763 | 13.33° C | 91% | 1006.9 hPa | 0 mm | 2.24 m/s, 275° | - | - |
| 1778009223 | 13.33° C | 90% | 1006.6 hPa | 0 mm | 1.34 m/s, 274° | - | - |
| 1778008683 | 13.89° C | 88% | 1006.7 hPa | 0 mm | 1.34 m/s, 281° | - | - |
| 1778008143 | 13.89° C | 88% | 1006.5 hPa | 0 mm | 1.79 m/s, 283° | - | - |
| 1778007603 | 13.89° C | 90% | 1006.1 hPa | 0 mm | 0.89 m/s, 290° | - | - |
| 1778007243 | 13.89° C | 92% | 1006.5 hPa | 0 mm | 1.79 m/s, 286° | - | - |
| 1778006703 | 13.89° C | 92% | 1006.3 hPa | 0 mm | 0.89 m/s, 261° | - | - |
| 1778006163 | 13.89° C | 92% | 1006 hPa | 0 mm | 0 m/s | - | - |
| 1778005623 | 13.89° C | 93% | 1006.2 hPa | 0 mm | 0.89 m/s, 302° | - | - |
| 1778005083 | 13.89° C | 94% | 1006 hPa | 0 mm | 0.45 m/s, 273° | - | - |
| 1778004543 | 13.89° C | 95% | 1006 hPa | 0 mm | 0.89 m/s, 82° | - | - |
* Rain latest hour (hover to see other rain measurements)
** Current wind speed in m/s (hover to see current wind gust speed)